Powrót do katalogu

STARLINK-3772

AktywnyŁącznośćVLEO
NORAD 52290·PAYLOAD·🇺🇸 United States

Wystrzelony Apr 21, 2022 z Cape Canaveral Space Force Station

Loading…

Następne Przeloty (najbliższe 24 godziny)

TLE

ŚwieżeSource: CelesTrak SupGP

Epoka: Sep 15, 2026, 02:12 UTC

1 52290C 22041AF  26258.09215278  .00044167  00000+0  13067-2 0  2582
2 52290  53.1580 316.7608 0001351  96.3113 160.1970 15.34325923    18

Śledź STARLINK-3772 w czasie rzeczywistym z AllMySat

Download on the App Store